sat.trackr.live / text

‹ back to catalog

INTELSAT 37E (IS-37E)

NORAD 42950 · 2017-059A

PAYLOAD ACTIVE UNKNOWN

§ Identity

Operator
Country
ITSO
Launch date
2017-09-29
Launch site
FRGUI
Launch vehicle
Mass (kg)
RCS (m²)

Purposes: comms

External: N2YO · Heavens-Above · Gunter

§ Orbital elements

Epoch: 2026-05-25T03:39:25.258752Z

Period
1,436.13 min
Inclination
0.0192°
Eccentricity
0.0002471
Mean motion
1.00269348 rev/d
Perigee alt
35,776.9 km
Apogee alt
35,797.7 km
Semi-major
42,165.4 km
B*
0.0000e+0
RAAN
307.0342°
Arg perigee
129.2848°
Mean anomaly
203.2912°
Rev number
3,183

§ Raw data

INTELSAT 37E (IS-37E)1 42950U 17059A   26145.15237568  .00000000  00000+0  00000+0 0  99952 42950   0.0192 307.0342 0002471 129.2848 203.2912  1.00269348 31838

JSON: /api/v1/satellites/42950 · /tle

For live sub-satellite position, see the globe view (requires WebGL).

§ Visibility from observer

Set your observer location to see the next 7 days of passes ≥ 10°. The values pass through the URL so the page stays shareable.

No JS? Fill the form by hand. The geolocation button needs JavaScript.